Gulf Shores, AL

4:17 PM CDT on October 23, 2017 (GMT -0500)
Edwards

Weather History for KJKA - May, 2014

Change the Weather History Date:

Tuesday, May 6, 2014

  Actual Average (KNPA) Record (KNPA)
Temperature  
Mean Temperature 68 °F -  
Max Temperature 78 °F 79 °F 84 °F (2002)
Min Temperature 59 °F 62 °F 39 °F (2000)
Cooling Degree Days 4    
Growing Degree Days 18 (Base 50)    
Moisture  
Dew Point 61 °F    
Average Humidity 77    
Maximum Humidity 99    
Minimum Humidity 52    
Precipitation  
Precipitation 0.00 in - - ()
Sea Level Pressure  
Sea Level Pressure 30.01 in    
Wind  
Wind Speed 2 mph (SW)    
Max Wind Speed 8 mph    
Max Gust Speed -    
Visibility 10 miles    
Events      
Averages and records for this station are not official NWS values.
T = Trace of Precipitation, MM = Missing Value Source: NWS Daily Summary

Daily Weather History Graph

Daily Weather History Graph

Search for Another Location

Airport or City:

Trip Planner

Search our weather history database for the weather conditions in past years. The results will help you decide how hot, cold, wet, or windy it might be!

Date:

Astronomy

May. 06, 2014 Rise Set
Actual Time 6:03 AM CDT 7:31 PM CDT
Civil Twilight 5:37 AM CDT 7:57 PM CDT
Nautical Twilight 5:06 AM CDT 8:28 PM CDT
Astronomical Twilight 4:34 AM CDT 9:00 PM CDT
Moon 12:13 PM CDT (5/6) 12:54 AM CDT (5/6)
Length of Visible Light 14h 20m
Length of Day
13h 28m
Waxing Crescent, 46% of the Moon is Illuminated
May 6
Waxing Crescent
May 6
First Quarter
May 14
Full
May 21
Last Quarter
May 28
New

Hourly Weather History & Observations

Time (CDT) Temp. Dew Point Humidity Pressure Visibility Wind Dir Wind Speed Gust Speed Precip Events Conditions
12:15 AM 59.5 °F 58.3 °F 96% 30.01 in 10.0 mi Calm Calm - N/A   Clear
12:35 AM 59.5 °F 58.3 °F 96% 30.00 in 10.0 mi Calm Calm - N/A   Clear
12:55 AM 60.1 °F 58.5 °F 94% 29.99 in 10.0 mi Calm Calm - N/A   Clear
1:15 AM 59.2 °F 58.5 °F 97% 29.99 in 10.0 mi Calm Calm - N/A   Clear
1:35 AM 59.9 °F 59.0 °F 97% 29.99 in 10.0 mi Calm Calm - N/A   Clear
1:55 AM 59.9 °F 58.8 °F 96% 29.98 in 10.0 mi Calm Calm - N/A   Clear
2:15 AM 60.3 °F 59.4 °F 97% 29.97 in 10.0 mi Calm Calm - N/A   Clear
2:35 AM 61.3 °F 59.7 °F 94% 29.97 in 10.0 mi Calm Calm - N/A   Clear
6:55 AM 59.0 °F 58.8 °F 99% 30.01 in 7.0 mi Calm Calm - N/A   Clear
7:15 AM 63.1 °F 62.4 °F 97% 30.02 in 10.0 mi Calm Calm - N/A   Clear
7:35 AM 66.6 °F 64.9 °F 95% 30.02 in 10.0 mi Calm Calm - N/A   Clear
7:55 AM 69.3 °F 64.8 °F 86% 30.03 in 10.0 mi Calm Calm - N/A   Clear
8:15 AM 71.8 °F 63.5 °F 75% 30.03 in 10.0 mi WSW 3.5 mph - N/A   Clear
8:55 AM 73.6 °F 61.5 °F 66% 30.04 in 10.0 mi WSW 4.6 mph - N/A   Clear
9:15 AM 74.3 °F 61.3 °F 64% 30.04 in 10.0 mi WSW 4.6 mph - N/A   Clear
9:35 AM 74.5 °F 61.0 °F 63% 30.05 in 10.0 mi WSW 4.6 mph - N/A   Clear
9:55 AM 75.6 °F 62.1 °F 63% 30.04 in 10.0 mi SSW 5.8 mph - N/A   Clear
10:15 AM 76.1 °F 61.9 °F 61% 30.04 in 10.0 mi SSW 4.6 mph - N/A   Clear
10:35 AM 76.1 °F 61.5 °F 60% 30.05 in 10.0 mi SSW 4.6 mph - N/A   Clear
10:55 AM 76.8 °F 61.3 °F 59% 30.05 in 10.0 mi South 6.9 mph - N/A   Clear
11:15 AM 77.2 °F 60.3 °F 56% 30.05 in 10.0 mi South 4.6 mph - N/A   Clear
11:35 AM 76.6 °F 60.8 °F 58% 30.05 in 10.0 mi South 5.8 mph - N/A   Clear
11:55 AM 77.0 °F 61.7 °F 59% 30.05 in 10.0 mi SSW 6.9 mph - N/A   Clear
12:15 PM 77.2 °F 61.3 °F 58% 30.04 in 10.0 mi SW 5.8 mph - N/A   Clear
12:35 PM 77.5 °F 61.7 °F 58% 30.04 in 10.0 mi SW 6.9 mph - N/A   Clear
12:55 PM 77.7 °F 62.4 °F 59% 30.03 in 10.0 mi SW 8.1 mph - N/A   Clear
1:15 PM 77.9 °F 63.5 °F 61% 30.02 in 10.0 mi SW 6.9 mph - N/A   Clear
1:35 PM 77.9 °F 62.8 °F 60% 30.02 in 10.0 mi SW 8.1 mph - N/A   Clear
1:55 PM 78.1 °F 61.7 °F 57% 30.02 in 10.0 mi SW 5.8 mph - N/A   Clear
2:15 PM 78.1 °F 60.3 °F 54% 30.01 in 10.0 mi SW 3.5 mph - N/A   Clear
2:35 PM 78.3 °F 59.4 °F 52% 30.01 in 10.0 mi SW 6.9 mph - N/A   Clear
6:50 PM 73.6 °F 61.5 °F 66% 29.98 in 10.0 mi South 4.6 mph - N/A   Clear
7:15 PM 72.5 °F 61.9 °F 69% 29.98 in 10.0 mi Calm Calm - N/A   Clear
7:55 PM 69.4 °F 61.9 °F 77% 29.99 in 10.0 mi Calm Calm - N/A   Clear
8:15 PM 67.1 °F 62.1 °F 84% 29.99 in 10.0 mi Calm Calm - N/A   Clear
8:35 PM 66.7 °F 62.6 °F 86% 29.99 in 10.0 mi Calm Calm - N/A   Clear
8:55 PM 66.9 °F 62.6 °F 86% 30.00 in 10.0 mi Calm Calm - N/A   Clear
9:15 PM 66.6 °F 62.8 °F 88% 30.00 in 10.0 mi Calm Calm - N/A   Clear
9:30 PM 66.2 °F 62.2 °F 87% 30.00 in 10.0 mi Calm Calm - N/A   Clear
9:55 PM 66.7 °F 62.6 °F 86% 30.01 in 10.0 mi Calm Calm - N/A   Clear
10:15 PM 65.8 °F 61.7 °F 86% 30.01 in 10.0 mi Calm Calm - N/A   Clear
11:00 PM 64.8 °F 62.8 °F 93% 30.01 in 10.0 mi Calm Calm - N/A   Clear
11:15 PM 62.6 °F 61.3 °F 96% 30.01 in 10.0 mi Calm Calm - N/A   Clear
11:35 PM 62.8 °F 62.1 °F 97% 30.01 in 10.0 mi Calm Calm - N/A   Scattered Clouds
11:55 PM 61.9 °F 61.0 °F 97% 30.01 in 7.0 mi Calm Calm - N/A   Scattered Clouds